sat.trackr.live / text

‹ back to catalog

STARLINK-5929

NORAD 55959 · 2023-037AX

PAYLOAD ACTIVE UNKNOWN

§ Identity

Operator
Country
US
Launch date
2023-03-17
Launch site
AFWTR
Launch vehicle
Mass (kg)
RCS (m²)

Purposes: comms

External: N2YO · Heavens-Above · Gunter

§ Orbital elements

Epoch: 2026-05-25T04:44:31.978176Z

Period
96.11 min
Inclination
70.0003°
Eccentricity
0.0002910
Mean motion
14.98328559 rev/d
Perigee alt
570.0 km
Apogee alt
574.1 km
Semi-major
6,950.2 km
B*
1.0453e-4
RAAN
71.5430°
Arg perigee
269.5779°
Mean anomaly
90.5047°
Rev number
17,593

§ Raw data

STARLINK-59291 55959U 23037AX  26145.19759234  .00001154  00000+0  10453-3 0  99922 55959  70.0003  71.5430 0002910 269.5779  90.5047 14.98328559175936

JSON: /api/v1/satellites/55959 · /tle

For live sub-satellite position, see the globe view (requires WebGL).

§ Visibility from observer

Set your observer location to see the next 7 days of passes ≥ 10°. The values pass through the URL so the page stays shareable.

No JS? Fill the form by hand. The geolocation button needs JavaScript.